Home > Weather > Philipsburg > Past weeks

Flag for Sint Maarten Past Weather in Philipsburg, Sint Maarten — Yesterday and Last 2 Weeks

Now
82 °F

Passing clouds.


Feels Like: 91 °F
Forecast: 82 / 88 °F
Wind: 12 mph from East

Location: Juliana Airport - Saint Maarten

Current Time: Aug 25, 2016 at 2:35:43 AM

Latest Report: Aug 24, 2016 at 11:00 PM


Visibility: N/A

Pressure: 29.95 "Hg

Humidity: 84%

Dew Point: 77 °F

Location of PhilipsburgLocation

Past Weather in Philipsburg — Graph

°F

Philipsburg Temperature Yesterday

Maximum temperature yesterday: 84 °F (at 9:00 AM)
Minimum temperature yesterday: 75 °F (at 12:00 PM)
Average temperature yesterday: 82 °F

High & Low Weather Summary for the Past Weeks

 TemperatureHumidityPressure
High90 °F (Aug 17, 12:00 PM)100% (Aug 24, 1:00 AM)30.07 "Hg (Aug 24, 1:00 AM)
Low75 °F (Aug 24, 12:00 PM)55% (Aug 22, 4:00 PM)29.83 "Hg (Aug 24, 3:00 AM)
Average84 °F75%29.99 "Hg
* Reported Aug 9 11:00 PM — Aug 24 11:00 PM, Philipsburg, Weather by CustomWeather, © 2016

Note: Actual official high and low records may vary slightly from our data, if they occured in-between our weather recording intervals... More about our weather records

Advertising

Philipsburg Weather History for the Previous 24 Hours

Scroll right to see more
 ConditionsComfort  
Time TempWeatherWind HumidityBarometerVisibility
11:00 PM
Wed, Aug 24
82 °FPassing clouds.12 mph84%29.95 "HgN/A
10:00 PM82 °FPassing clouds.9 mph84%29.95 "HgN/A
9:00 PM84 °FPassing clouds.8 mph79%29.95 "HgN/A
8:00 PM84 °FPassing clouds.13 mph79%29.92 "HgN/A
7:00 PM84 °FPassing clouds.14 mph79%29.92 "HgN/A
6:00 PM82 °FScattered clouds.12 mph89%29.92 "HgN/A
5:05 PM82 °FScattered clouds.9 mph89%29.89 "HgN/A
5:00 PM82 °FPassing clouds.9 mph89%29.89 "HgN/A
4:00 PM82 °FPassing clouds.15 mph89%29.89 "HgN/A
3:00 PM84 °FSprinkles. Passing clouds.13 mph79%29.92 "HgN/A
1:00 PM79 °FScattered clouds.16 mph89%29.92 "HgN/A
12:00 PM75 °FHeavy rain. Scattered clouds.8 mph94%29.95 "Hg1 mi
10:00 AM79 °FLots of rain. Overcast.32 mph100%29.89 "Hg1 mi
9:00 AM84 °FSprinkles. Scattered clouds.9 mph84%29.86 "HgN/A
8:00 AM82 °FScattered clouds.13 mph84%29.86 "HgN/A
7:00 AM82 °FScattered showers. Passing clouds.12 mph84%29.86 "HgN/A
6:00 AM82 °FScattered clouds.9 mph89%29.86 "HgN/A
5:00 AM82 °FScattered showers. Passing clouds.13 mph89%29.83 "HgN/A
4:00 AM81 °FSprinkles. Passing clouds.9 mph94%29.83 "HgN/A
3:00 AM82 °FPassing clouds.9 mph89%29.83 "HgN/A
2:00 AM81 °FPassing clouds.10 mph94%29.86 "HgN/A
Weather by CustomWeather, © 2016

See weather overviewHow to use our weather pages